When you browse on this site, cookies collect data to enhance your experience and personalize the content and advertising you see.
Visit our Privacy Policy to learn more. By continuing to use the site, you agree to this use of cookies and data.
  • En España
  • Lista de países
  • Para 7 días
  • Temperatura del agua
  • El tiempo en el mapa
  • Informadores
  • user-avatar
    Iniciar sesión

    Tiempo cada hora Mulchén

    Hoy, 22 Enero, Miércoles

    Tiempo Temperatura Precipitaciones Viento Presión Humedad
    00:00 +20°C° 0 mm 3 mps 743 mmHg 60%
    01:00 +18°C° 0 mm 2 mps 743 mmHg 63%
    02:00 +18°C° 0 mm 2 mps 743 mmHg 66%
    03:00 +17°C° 0 mm 2 mps 742 mmHg 68%
    04:00 +17°C° 0 mm 2 mps 742 mmHg 70%
    05:00 +18°C° 0 mm 2 mps 743 mmHg 65%
    06:00 +20°C° 0 mm 2 mps 743 mmHg 60%
    07:00 +21°C° 0 mm 2 mps 743 mmHg 55%
    08:00 +26°C° 0 mm 2 mps 743 mmHg 47%
    09:00 +30°C° 0 mm 2 mps 743 mmHg 39%
    10:00 +34°C° 0 mm 2 mps 743 mmHg 31%
    11:00 +36°C° 0 mm 2 mps 743 mmHg 27%
    12:00 +39°C° 0 mm 2 mps 742 mmHg 24%
    13:00 +41°C° 0 mm 2 mps 742 mmHg 20%
    14:00 +41°C° 0 mm 2 mps 742 mmHg 19%
    15:00 +42°C° 0 mm 3 mps 742 mmHg 18%
    16:00 +42°C° 0 mm 3 mps 741 mmHg 17%
    17:00 +38°C° 0 mm 3 mps 742 mmHg 23%
    18:00 +35°C° 0 mm 2 mps 742 mmHg 30%
    19:00 +31°C° 0 mm 2 mps 742 mmHg 36%
    20:00 +28°C° 0 mm 2 mps 742 mmHg 42%
    21:00 +25°C° 0 mm 2 mps 743 mmHg 49%
    22:00 +22°C° 0 mm 1 mps 743 mmHg 56%
    23:00 +21°C° 0 mm 1 mps 743 mmHg 60%

    Mañana, 23 Enero, Jueves

    Tiempo Temperatura Precipitaciones Viento Presión Humedad
    00:00 +19°C° 0 mm 1 mps 743 mmHg 65%
    01:00 +18°C° 0 mm 1 mps 743 mmHg 70%
    02:00 +16°C° 0 mm 1 mps 743 mmHg 73%
    03:00 +15°C° 0 mm 1 mps 744 mmHg 77%
    04:00 +14°C° 0 mm 1 mps 744 mmHg 81%
    05:00 +16°C° 0 mm 1 mps 745 mmHg 73%
    06:00 +19°C° 0 mm 1 mps 745 mmHg 66%
    07:00 +21°C° 0 mm 1 mps 746 mmHg 58%
    08:00 +24°C° 0 mm 1 mps 746 mmHg 47%
    09:00 +27°C° 0 mm 1 mps 746 mmHg 37%
    10:00 +30°C° 0 mm 2 mps 747 mmHg 26%
    11:00 +32°C° 0 mm 2 mps 746 mmHg 22%
    12:00 +34°C° 0 mm 3 mps 746 mmHg 18%
    13:00 +36°C° 0 mm 3 mps 746 mmHg 14%
    14:00 +36°C° 0 mm 3 mps 746 mmHg 15%
    15:00 +35°C° 0 mm 3 mps 746 mmHg 15%
    16:00 +35°C° 0 mm 4 mps 746 mmHg 16%
    17:00 +32°C° 0 mm 4 mps 746 mmHg 22%
    18:00 +28°C° 0 mm 4 mps 746 mmHg 28%
    19:00 +25°C° 0 mm 4 mps 747 mmHg 35%
    20:00 +22°C° 0 mm 4 mps 747 mmHg 44%
    21:00 +20°C° 0 mm 3 mps 747 mmHg 53%
    22:00 +18°C° 0 mm 3 mps 747 mmHg 62%
    23:00 +17°C° 0 mm 3 mps 747 mmHg 65%

    Pasado mañana, 24 Enero, Viernes

    Tiempo Temperatura Precipitaciones Viento Presión Humedad
    00:00 +16°C° 0 mm 2 mps 747 mmHg 68%
    01:00 +15°C° 0 mm 2 mps 746 mmHg 71%
    02:00 +14°C° 0 mm 2 mps 746 mmHg 72%
    03:00 +14°C° 0 mm 2 mps 746 mmHg 72%
    04:00 +13°C° 0 mm 3 mps 747 mmHg 73%
    05:00 +14°C° 0 mm 3 mps 747 mmHg 66%
    06:00 +17°C° 0 mm 3 mps 747 mmHg 59%
    07:00 +18°C° 0 mm 3 mps 747 mmHg 51%
    08:00 +21°C° 0 mm 3 mps 747 mmHg 41%
    09:00 +25°C° 0 mm 4 mps 747 mmHg 30%
    10:00 +28°C° 0 mm 4 mps 747 mmHg 19%
    11:00 +30°C° 0 mm 4 mps 747 mmHg 17%
    12:00 +32°C° 0 mm 4 mps 746 mmHg 15%
    13:00 +34°C° 0 mm 4 mps 746 mmHg 13%
    14:00 +34°C° 0 mm 4 mps 746 mmHg 13%
    15:00 +33°C° 0 mm 4 mps 746 mmHg 13%
    16:00 +33°C° 0 mm 4 mps 746 mmHg 13%
    17:00 +30°C° 0 mm 4 mps 747 mmHg 18%
    18:00 +27°C° 0 mm 4 mps 747 mmHg 23%
    19:00 +23°C° 0 mm 4 mps 747 mmHg 28%
    20:00 +21°C° 0 mm 4 mps 748 mmHg 34%
    21:00 +18°C° 0 mm 3 mps 748 mmHg 40%
    22:00 +16°C° 0 mm 3 mps 748 mmHg 45%
    23:00 +14°C° 0 mm 3 mps 747 mmHg 51%

    25 Enero, Sábado

    Tiempo Temperatura Precipitaciones Viento Presión Humedad
    00:00 +13°C° 0 mm 3 mps 747 mmHg 56%
    01:00 +12°C° 0 mm 3 mps 747 mmHg 62%
    02:00 +12°C° 0 mm 3 mps 747 mmHg 63%
    03:00 +12°C° 0 mm 3 mps 746 mmHg 65%
    04:00 +11°C° 0 mm 3 mps 746 mmHg 66%
    05:00 +13°C° 0 mm 3 mps 746 mmHg 61%
    06:00 +14°C° 0 mm 3 mps 746 mmHg 56%
    07:00 +17°C° 0 mm 3 mps 746 mmHg 51%
    08:00 +20°C° 0 mm 3 mps 746 mmHg 43%
    09:00 +23°C° 0 mm 4 mps 746 mmHg 36%
    10:00 +27°C° 0 mm 4 mps 746 mmHg 28%
    11:00 +29°C° 0 mm 4 mps 746 mmHg 27%
    12:00 +32°C° 0 mm 4 mps 746 mmHg 26%
    13:00 +34°C° 0 mm 4 mps 745 mmHg 24%
    14:00 +34°C° 0 mm 4 mps 745 mmHg 25%
    15:00 +34°C° 0 mm 5 mps 745 mmHg 26%
    16:00 +34°C° 0 mm 5 mps 745 mmHg 27%
    17:00 +30°C° 0 mm 5 mps 746 mmHg 34%
    18:00 +27°C° 0 mm 4 mps 746 mmHg 42%
    19:00 +25°C° 0 mm 4 mps 746 mmHg 49%
    20:00 +22°C° 0 mm 4 mps 747 mmHg 58%
    21:00 +20°C° 0 mm 3 mps 747 mmHg 66%
    22:00 +18°C° 0 mm 3 mps 747 mmHg 75%
    23:00 +18°C° 0 mm 3 mps 747 mmHg 78%

    26 Enero, Domingo

    Tiempo Temperatura Precipitaciones Viento Presión Humedad
    00:00 +17°C° 0 mm 3 mps 747 mmHg 81%
    01:00 +17°C° 0 mm 2 mps 747 mmHg 85%
    02:00 +17°C° 0 mm 3 mps 746 mmHg 85%
    03:00 +16°C° 0 mm 3 mps 746 mmHg 86%
    04:00 +16°C° 0 mm 3 mps 746 mmHg 86%
    05:00 +17°C° 0 mm 3 mps 746 mmHg 81%
    06:00 +18°C° 0 mm 3 mps 746 mmHg 77%
    07:00 +20°C° 0 mm 3 mps 746 mmHg 72%
    08:00 +22°C° 0 mm 4 mps 746 mmHg 63%
    09:00 +25°C° 0 mm 4 mps 746 mmHg 54%
    10:00 +27°C° 0 mm 5 mps 746 mmHg 45%
    11:00 +28°C° 0 mm 5 mps 746 mmHg 39%
    12:00 +30°C° 0 mm 5 mps 746 mmHg 33%
    13:00 +33°C° 0 mm 5 mps 746 mmHg 27%
    14:00 +33°C° 0 mm 5 mps 746 mmHg 27%
    15:00 +33°C° 0 mm 4 mps 746 mmHg 27%
    16:00 +33°C° 0 mm 4 mps 746 mmHg 27%
    17:00 +30°C° 0 mm 4 mps 746 mmHg 33%
    18:00 +28°C° 0 mm 4 mps 746 mmHg 38%
    19:00 +26°C° 0 mm 4 mps 747 mmHg 44%
    20:00 +23°C° 0 mm 4 mps 747 mmHg 51%
    21:00 +21°C° 0 mm 3 mps 747 mmHg 58%
    22:00 +19°C° 0 mm 3 mps 747 mmHg 66%
    23:00 +18°C° 0 mm 3 mps 747 mmHg 70%

    27 Enero, Lunes

    Tiempo Temperatura Precipitaciones Viento Presión Humedad
    00:00 +17°C° 0 mm 3 mps 747 mmHg 74%
    01:00 +16°C° 0 mm 3 mps 747 mmHg 79%
    02:00 +14°C° 0 mm 3 mps 746 mmHg 78%
    03:00 +14°C° 0 mm 3 mps 746 mmHg 77%
    04:00 +13°C° 0 mm 3 mps 746 mmHg 77%
    05:00 +14°C° 0 mm 3 mps 746 mmHg 70%
    06:00 +17°C° 0 mm 3 mps 746 mmHg 64%
    07:00 +18°C° 0 mm 3 mps 746 mmHg 57%
    08:00 +21°C° 0 mm 3 mps 745 mmHg 46%
    09:00 +25°C° 0 mm 3 mps 745 mmHg 35%
    10:00 +29°C° 0 mm 4 mps 745 mmHg 23%
    11:00 +30°C° 0 mm 4 mps 745 mmHg 19%
    12:00 +33°C° 0 mm 4 mps 744 mmHg 16%
    13:00 +35°C° 0 mm 4 mps 744 mmHg 12%
    14:00 +35°C° 0 mm 4 mps 744 mmHg 12%
    15:00 +35°C° 0 mm 4 mps 744 mmHg 12%
    16:00 +35°C° 0 mm 4 mps 744 mmHg 13%
    17:00 +32°C° 0 mm 4 mps 744 mmHg 16%
    18:00 +28°C° 0 mm 4 mps 745 mmHg 20%
    19:00 +25°C° 0 mm 4 mps 745 mmHg 23%
    20:00 +21°C° 0 mm 3 mps 745 mmHg 27%
    21:00 +19°C° 0 mm 3 mps 745 mmHg 31%
    22:00 +17°C° 0 mm 3 mps 745 mmHg 35%
    23:00 +16°C° 0 mm 3 mps 745 mmHg 42%
    Mostrar más